Location: Peebles
(55.6412°N, 3.1714°W)
Time: 14:30:13
(UTC+01:00)

FLOCK 4S 26 - Pass Details

Date: 12 July 2022
Orbit: 498 x 512 km, 97.4° (Epoch: 17 August)

Event Time Altitude Azimuth Distance (km) Brightness Sun altitude
Rises 23:20:09 0° 214° (SW) 2,630 ? -8.5°
Reaches altitude 10° 23:23:11 10° 242° (WSW) 1,747 ? -8.7°
Maximum altitude 23:25:07 14° 273° (W) 1,535 ? -8.8°
Drops below altitude 10° 23:27:04 10° 304° (NW) 1,751 ? -9.0°
Sets 23:30:07 0° 332° (NNW) 2,641 ? -9.1°
